Location: Holyhead Bay
(53.3667°N, 4.6667°W)
Time: 19:52:28
(UTC+00:00)

USA 267 - Pass Details

Date: 24 November 2020
Orbit: 1100 x 1107 km, 123.0° (Epoch: 06 January)

Event Time Altitude Azimuth Distance (km) Brightness Sun altitude
Exits shadow 17:21:39 - 109° (ESE) 3,636 5.5 -10.2°
Reaches altitude 10° 17:23:24 10° 109° (ESE) 2,957 5.1 -10.5°
Maximum altitude 17:29:57 86° 22° (NNE) 1,111 3.3 -11.4°
Drops below altitude 10° 17:36:32 10° 294° (WNW) 2,967 6.2 -12.3°
Sets 17:39:00 0° 294° (WNW) 3,927 7.0 -12.7°
